Regional Weather Roundup
Issued by NWS Kansas City/Pleasant Hill, MO

Home | Current Version | Previous Version | Graphics & Text | Print | Product List | Glossary Off
Versions: 1 2 3 4 5 6 7 8 9 10 11 12 13 14 15 16 17 18 19 20 21 22 23 24 25 26 27 28 29 30 31 32 33 34 35 36 37 38 39 40 41 42 43 44 45 46 47 48 49 50

000
ASUS43 KEAX 041204
RWREAX

WEATHER ROUNDUP FOR EASTERN KANSAS AND NORTHWEST MISSOURI
NATIONAL WEATHER SERVICE KANSAS CITY/PLEASANT HILL MO
600 AM CST WED MAR 04 2015

KSZ040-057-103>105-MOZ028-029-037-043-041300-
...KANSAS CITY METROPOLITAN AREA...

CITY           SKY/WX    TMP DP  RH WIND       PRES   REMARKS
K.C. INTL      CLOUDY    19   6  57 N14       30.21R WCI   6
6HR MIN TEMP:  19; 6HR MAX TEMP:  27;

K.C. DOWNTOWN  CLOUDY    21   5  50 NE12      30.23R WCI   9
6HR MIN TEMP:  21; 6HR MAX TEMP:  30;

LEES SUMMIT    CLOUDY    20   5  52 N22G31    30.20R WCI   3
6HR MIN TEMP:  20; 6HR MAX TEMP:  30;

OLATHE - IXD   CLOUDY    20   6  55 N18       30.20R WCI   5
6HR MIN TEMP:  19; 6HR MAX TEMP:  29;

OLATHE - OJC   CLOUDY    20   4  50 NE17      30.18R WCI   5
6HR MIN TEMP:  20; 6HR MAX TEMP:  30;

LAWRENCE       MOCLDY    20   6  55 N13       30.22R WCI   7

$$

MOZ001>008-011>017-020>025-030>033-038>040-044>046-053-054-041300-
...NORTHERN AND CENTRAL MISSOURI...

CITY           SKY/WX    TMP DP  RH WIND       PRES   REMARKS
ST. JOSEPH     CLOUDY    18   9  68 N16       30.25R WCI   3
6HR MIN TEMP:  18; 6HR MAX TEMP:  22;

MOSBY          CLOUDY    21   9  58 N10       30.23R WCI  10
WARRENSBURG    FLURRIES  21  10  63 N12G17    30.20R WCI   9
WHITEMAN AFB   LGT SNOW  19  16  86 N15       30.17R WCI   5
6HR MIN TEMP:  20; 6HR MAX TEMP:  33; 6HR PCP: TRACE;

CLINTON        LGT SNOW  25  21  86 N23G30    30.16R WCI  10
SEDALIA        LGT SNOW  22  17  81 N21       30.17R VSB 3/4 WCI   6
6HR MIN TEMP:  22; 6HR MAX TEMP:  34; 6HR PCP: TRACE;

WARSAW         NOT AVBL
MARSHALL       CLOUDY    25  18  74 N16G22    30.17R WCI  12
CHILLICOTHE      N/A     19   7  59 N9        30.23R WCI   8
6HR MIN TEMP:  19; 6HR MAX TEMP:  29;

KIRKSVILLE     NOT AVBL

$$

MOZ041-047>049-056>058-063>065-088>090-097-041300-
...EASTERN AND SOUTHERN MISSOURI...

CITY           SKY/WX    TMP DP  RH WIND       PRES   REMARKS
ST. LOUIS INTL FLURRIES  29  19  66 N18G24    30.06R WCI  16
6HR MIN TEMP:  29; 6HR MAX TEMP:  37; 6HR PCP:  0.01;

SPIRIT OF STL  CLOUDY    27  18  69 N16G22    30.08R WCI  15
COLUMBIA       CLOUDY    24  16  71 N20G30    30.13R WCI  10
JEFFERSON CITY CLOUDY    27  16  63 N15G22    30.15R WCI  15
MEXICO         MOCLDY    21  16  79 N15G23    30.15R WCI   8
HANNIBAL       CLEAR     18   5  57 N13       30.16R WCI   4
ROLLA          CLOUDY    28  23  81 N17G24    30.05R WCI  16
OSAGE BEACH    CLOUDY    30  25  80 NW8       30.08R WCI  23
SPRINGFIELD    CLOUDY    32  28  85 N15G25    30.02R WCI  22
NEVADA         CLOUDY    27  19  74 N21G30    30.13R WCI  13
JOPLIN         CLOUDY    30  25  81 N17       30.09R WCI  18
WEST PLAINS    MIX PCPN  34  31  88 N12G18    29.97R FOG     WCI  25

$$

IAZ060-094-KSZ022-034>040-054-083-096-NEZ052-066-093-041300-
...KANSAS...SOUTHEAST NEBRASKA AND IOWA...

CITY           SKY/WX    TMP DP  RH WIND       PRES   REMARKS
TOPEKA         CLOUDY    21   7  54 N20       30.24R WCI   6
6HR MIN TEMP:  21; 6HR MAX TEMP:  28;

MANHATTAN      CLOUDY    21  11  65 NE9       30.24R WCI  11
EMPORIA        FLURRIES  20   8  60 N15G25    30.19R WCI   6
CHANUTE        LGT SNOW  21  16  81 N20G30    30.16R WCI   6
WICHITA        FLURRIES  21  15  78 NE17G24   30.16R WCI   7
OMAHA          CLOUDY    15   7  70 N3        30.26R
LINCOLN        MOCLDY    14  11  87 CALM      30.26R
FALLS CITY     CLOUDY    18  11  74 N9        30.25R WCI   7
LAMONI         CLOUDY    15   3  59 N14       30.19R WCI   0
DES MOINES     PTCLDY    13   0  56 NW9       30.23R WCI   1

$$




USA.gov is the U.S. government's official web portal to all federal, state and local government web resources and services.